Virginia Beach, VA

7:13 AM EST on December 11, 2016 (GMT -0500)
Oceana Naval Air Station

Weather History for KNTU - May, 2014

Change the Weather History Date:

Thursday, May 1, 2014

  Actual Average Record
Temperature  
Mean Temperature 76 °F -  
Max Temperature 81 °F 69 °F 84 °F (2012)
Min Temperature 71 °F 50 °F 45 °F (2008)
Cooling Degree Days 10    
Growing Degree Days 26 (Base 50)    
Moisture  
Dew Point 66 °F    
Average Humidity 77    
Maximum Humidity 90    
Minimum Humidity 56    
Precipitation  
Precipitation 0.00 in - - ()
Sea Level Pressure  
Sea Level Pressure 29.85 in    
Wind  
Wind Speed 12 mph (SSW)    
Max Wind Speed 21 mph    
Max Gust Speed 31 mph    
Visibility 10 miles    
Events Rain    
Averages and records for this station are not official NWS values.
T = Trace of Precipitation, MM = Missing Value Source: NWS Daily Summary

Daily Weather History Graph

Daily Weather History Graph

Search for Another Location

Airport or City:

Trip Planner

Search our weather history database for the weather conditions in past years. The results will help you decide how hot, cold, wet, or windy it might be!

Date:

Astronomy

May. 01, 2014 Rise Set
Actual Time 6:10 AM EDT 7:52 PM EDT
Civil Twilight 5:42 AM EDT 8:20 PM EDT
Nautical Twilight 5:08 AM EDT 8:54 PM EDT
Astronomical Twilight 4:33 AM EDT 9:30 PM EDT
Moon 7:57 AM EDT (5/1) 10:22 PM EDT (5/1)
Length of Visible Light 14h 38m
Length of Day
13h 42m
Waxing Crescent, 6% of the Moon is Illuminated
May 1
Waxing Crescent
May 6
First Quarter
May 14
Full
May 21
Last Quarter
May 28
New

Hourly Weather History & Observations

Time (EDT) Temp. Heat Index Dew Point Humidity Pressure Visibility Wind Dir Wind Speed Gust Speed Precip Events Conditions
12:37 AM 71.1 °F - 66.9 °F 87% 29.93 in 10.0 mi South 11.5 mph 19.6 mph N/A   Mostly Cloudy
12:56 AM 71.1 °F - 66.9 °F 87% 29.93 in 10.0 mi South 10.4 mph - N/A   Overcast
1:31 AM 71.1 °F - 66.9 °F 87% 29.92 in 10.0 mi South 8.1 mph 17.3 mph N/A   Overcast
1:56 AM 71.1 °F - 68.0 °F 90% 29.93 in 10.0 mi South 10.4 mph - N/A   Overcast
2:56 AM 71.1 °F - 68.0 °F 90% 29.91 in 10.0 mi South 6.9 mph - N/A   Overcast
3:14 AM 71.1 °F - 68.0 °F 90% 29.89 in 10.0 mi South 9.2 mph - N/A   Overcast
3:56 AM 71.1 °F - 68.0 °F 90% 29.90 in 10.0 mi South 9.2 mph - N/A   Mostly Cloudy
4:56 AM 71.1 °F - 68.0 °F 90% 29.89 in 10.0 mi SSW 9.2 mph - N/A   Mostly Cloudy
5:09 AM 71.1 °F - 68.0 °F 90% 29.88 in 10.0 mi SSW 9.2 mph - N/A   Mostly Cloudy
5:40 AM 71.1 °F - 66.9 °F 87% 29.88 in 10.0 mi South 10.4 mph - N/A   Mostly Cloudy
5:56 AM 71.1 °F - 66.9 °F 87% 29.89 in 10.0 mi SSW 9.2 mph - N/A   Mostly Cloudy
6:56 AM 71.1 °F - 66.9 °F 87% 29.91 in 10.0 mi South 8.1 mph - N/A   Overcast
7:56 AM 72.0 °F - 66.9 °F 84% 29.90 in 10.0 mi SSW 10.4 mph - N/A   Mostly Cloudy
8:56 AM 73.0 °F - 66.9 °F 81% 29.89 in 10.0 mi SSW 10.4 mph - N/A   Mostly Cloudy
9:56 AM 75.9 °F - 66.0 °F 71% 29.88 in 10.0 mi SSW 16.1 mph 21.9 mph N/A   Mostly Cloudy
10:56 AM 77.0 °F - 64.9 °F 66% 29.87 in 10.0 mi SSW 17.3 mph 24.2 mph N/A   Mostly Cloudy
11:56 AM 80.1 °F 81.9 °F 64.9 °F 60% 29.85 in 10.0 mi SSW 16.1 mph 26.5 mph N/A   Mostly Cloudy
12:56 PM 80.1 °F 81.7 °F 64.0 °F 58% 29.84 in 10.0 mi SSW 15.0 mph 25.3 mph N/A   Mostly Cloudy
1:56 PM 80.1 °F 81.5 °F 63.0 °F 56% 29.82 in 10.0 mi South 18.4 mph 23.0 mph N/A   Mostly Cloudy
2:56 PM 78.1 °F - 64.9 °F 64% 29.82 in 10.0 mi SSW 15.0 mph 27.6 mph 0.00 in Rain Light Rain
3:28 PM 79.0 °F - 64.9 °F 62% 29.79 in 10.0 mi SSW 19.6 mph 29.9 mph 0.00 in   Mostly Cloudy
3:56 PM 77.0 °F - 62.1 °F 60% 29.81 in 10.0 mi South 20.7 mph 27.6 mph 0.00 in   Mostly Cloudy
4:56 PM 75.0 °F - 61.0 °F 62% 29.81 in 10.0 mi SSW 19.6 mph 31.1 mph N/A   Mostly Cloudy
5:56 PM 75.0 °F - 62.1 °F 64% 29.80 in 10.0 mi SSW 17.3 mph - N/A   Mostly Cloudy
6:56 PM 73.9 °F - 62.1 °F 66% 29.79 in 10.0 mi SSW 13.8 mph 23.0 mph N/A   Overcast
7:56 PM 73.0 °F - 64.0 °F 73% 29.79 in 10.0 mi SSW 10.4 mph - N/A   Mostly Cloudy
8:56 PM 72.0 °F - 64.9 °F 78% 29.78 in 10.0 mi SSW 12.7 mph - N/A   Overcast
9:56 PM 71.1 °F - 66.0 °F 84% 29.78 in 10.0 mi SSW 10.4 mph - N/A   Overcast
10:56 PM 71.1 °F - 64.9 °F 81% 29.78 in 10.0 mi SSW 12.7 mph - N/A   Overcast
11:56 PM 71.1 °F - 64.9 °F 81% 29.78 in 10.0 mi SSW 13.8 mph - N/A   Mostly Cloudy